Location: Zagreb
(45.8000°N, 16.0000°E)
Time: 11:09:21
(UTC+01:00)

Vanguard 1 Rocket - All Passes

Search period start: 19 January 2022 00:00
Search period end: 29 January 2022 00:00
Orbit: 651 x 4224 km, 34.3° (Epoch: 18 January)

Date Brightness Start Highest point End Pass type
(mag) Time Alt. Az. Time Alt. Az. Time Alt. Az.
19 Jan - 11:30:29 10° SSW 11:47:27 26° SSE 11:59:13 10° E daylight
19 Jan - 13:57:29 10° SW 14:15:32 43° SSE 14:25:35 10° ESE daylight
19 Jan - 16:28:39 10° WSW 16:42:05 44° S 16:49:18 10° ESE daylight
19 Jan - 19:00:00 10° WSW 19:06:19 20° SW 19:10:44 10° S visible
20 Jan - 10:20:05 10° S 10:34:18 19° SE 10:45:30 10° ESE daylight
20 Jan - 12:43:20 10° SW 13:02:45 38° SSE 13:14:27 10° E daylight
20 Jan - 15:13:43 10° WSW 15:30:17 48° S 15:39:03 10° ESE daylight
20 Jan - 17:45:27 10° W 17:55:40 33° SSW 18:01:42 10° SE visible
21 Jan - 09:14:41 10° SSE 09:21:11 12° SE 09:27:11 10° ESE daylight
21 Jan - 11:30:12 10° SSW 11:49:35 32° SSE 12:02:37 10° E daylight
21 Jan - 13:58:43 10° WSW 14:17:54 48° S 14:28:25 10° ESE daylight
21 Jan - 16:30:37 10° W 16:44:29 43° SSW 16:51:58 10° SE daylight
21 Jan - 19:02:50 10° WSW 19:08:28 17° SW 19:12:36 10° S visible
22 Jan - 10:18:38 10° S 10:36:15 25° SE 10:49:39 10° E daylight
22 Jan - 12:44:07 10° SW 13:05:00 44° SSE 13:17:22 10° E daylight
22 Jan - 15:15:25 10° WSW 15:32:41 50° S 15:41:46 10° ESE daylight
22 Jan - 17:47:44 10° W 17:57:55 30° SSW 18:04:04 10° SSE visible
23 Jan - 09:09:45 10° SSE 09:23:00 17° SE 09:34:25 10° ESE daylight
23 Jan - 11:30:26 10° SSW 11:51:40 38° SSE 12:05:42 10° E daylight
23 Jan - 14:00:07 10° WSW 14:20:14 51° S 14:31:11 10° ESE daylight
23 Jan - 16:32:37 10° W 16:46:48 42° SSW 16:54:32 10° SE daylight
23 Jan - 19:06:05 10° WSW 19:10:29 14° SW 19:13:58 10° SSW visible
24 Jan - 10:18:07 10° SSW 10:38:08 31° SSE 10:53:09 10° E daylight
24 Jan - 12:45:10 10° SW 13:07:12 49° SSE 13:20:10 10° E daylight
24 Jan - 15:17:12 10° WSW 15:35:01 50° S 15:44:26 10° ESE daylight
24 Jan - 17:50:06 10° W 18:00:02 26° SW 18:06:14 10° SSE visible
25 Jan - 09:07:45 10° S 09:24:41 23° SE 09:39:01 10° E daylight
25 Jan - 11:31:04 10° SW 11:53:42 44° SSE 12:08:35 10° E daylight
25 Jan - 14:01:40 10° WSW 14:22:32 54° S 14:33:53 10° ESE daylight
25 Jan - 16:34:40 10° W 16:49:02 39° SSW 16:56:58 10° SE daylight
25 Jan - 19:10:36 10° WSW 19:12:22 11° SW 19:13:59 10° SW visible
26 Jan - 08:01:15 10° SSE 08:11:34 14° SE 08:21:17 10° ESE daylight
26 Jan - 10:18:11 10° SSW 10:39:58 37° SSE 10:56:15 10° E daylight
26 Jan - 12:46:27 10° WSW 13:09:22 53° S 13:22:53 10° E daylight
26 Jan - 15:19:02 10° W 15:37:17 49° SSW 15:47:00 10° SE daylight
26 Jan - 17:52:38 10° W 18:02:02 23° SW 18:08:10 10° S visible
27 Jan - 09:06:56 10° S 09:26:19 28° SE 09:42:43 10° E daylight
27 Jan - 11:32:01 10° SW 11:55:42 49° SSE 12:11:21 10° E daylight
27 Jan - 14:03:20 10° WSW 14:24:46 55° S 14:36:31 10° ESE daylight
27 Jan - 16:36:46 10° W 16:51:07 36° SSW 16:59:17 10° SSE daylight
28 Jan - 07:58:10 10° SSE 08:13:01 19° SE 08:26:58 10° E daylight
28 Jan - 10:18:44 10° SSW 10:41:45 42° SSE 10:59:07 10° E daylight
28 Jan - 12:47:55 10° WSW 13:11:31 56° S 13:25:32 10° ESE daylight
28 Jan - 15:20:55 10° W 15:39:27 47° SSW 15:49:30 10° SE daylight
28 Jan - 17:55:25 10° W 18:03:52 19° SW 18:09:44 10° S visible
